Preview of NWS' New Version of Forecast
This preview is not operational and should not be used for support decisions.

Regional Weather Roundup (RWR)

Issued by National Weather Service (NWS)

                            
000
ASUS45 KBOI 241310
RWRID 

IDAHO REGIONAL WEATHER ROUNDUP
NATIONAL WEATHER SERVICE BOISE ID
700 AM MDT MON JUN 24 2019

NOTE: "FAIR" INDICATES FEW OR NO CLOUDS BELOW 12000 FEET
WITH NO SIGNIFICANT WEATHER AND/OR OBSTRUCTIONS TO VISIBILITY

IDZ012-014-241400-
SOUTHWEST IDAHO

  
CITY           SKY/WX    TMP DP  RH WIND       PRES   REMARKS
BOISE          CLEAR     52  40  63 SE3       30.00R                  
CALDWELL       CLEAR     52  40  63 CALM      30.01R HAZE             
MOUNTAIN HOME  CLEAR     53  38  58 NW7       30.00R                  
$$

IDZ016-017-241400-
SOUTHCENTRAL IDAHO

  
CITY           SKY/WX    TMP DP  RH WIND       PRES   REMARKS
BURLEY         CLEAR     51  38  60 W8        30.00S                  
JEROME         CLEAR     52  39  61 SW6       30.02R                  
TWIN FALLS     CLEAR     53  37  54 SW10      30.02S                  
$$

IDZ019>023-241400-
SOUTHEAST IDAHO

  
CITY           SKY/WX    TMP DP  RH WIND       PRES   REMARKS
IDAHO FALLS    SUNNY     50  36  58 S10       30.00R                  
POCATELLO      SUNNY     54  35  48 SW12      30.01R                  
REXBURG        SUNNY     50  35  56 S10       29.99R                  
$$

IDZ006-010-011-018-031-032-241400-
CENTRAL IDAHO MOUNTAINS

  
CITY           SKY/WX    TMP DP  RH WIND       PRES   REMARKS
MCCALL         CLEAR     41  34  76 CALM      30.01R                  
HAILEY         CLEAR     39  34  81 NW6       30.04R WCI  35          
STANLEY          N/A     31  26  82 S3        30.07S                  
SALMON         SUNNY     44  38  79 NW5       30.01R                  
CHALLIS        CLEAR     47  34  60 CALM      30.01S                  
$$

IDZ002-004-006-007-026-241400-
NORTHERN IDAHO

  
CITY           SKY/WX    TMP DP  RH WIND       PRES   REMARKS
LEWISTON       MOCLDY    55  41  59 E5        29.97S                  
LOWELL           N/A     50  48  93 CALM      30.01R                  
COEUR D'ALENE  PTCLDY    48  41  76 S5        29.97R                  
MULLAN PASS    PTCLDY    39  33  79 W5        29.99R                  
$$